SL-14 DEB, 45469

Orbit data source: Space-Track

SL-14 DEB, 45469 is space debris in LEO originally from a launch on Thu, 15 Aug 1991 UTC launched from the Plesetsk Missile And Space Complex (PKMTR). Debris objects in space refer to the collection of defunct objects orbiting the Earth. Examples of debris include non-operational satellites, rocket bodies, and fragments generated from explosions, collisions, or faulty payload assembly.

Loading next visibility...
Identifier
45469, 1991-056CU
Orbit
LEO
Country
Flag of CISCIS
Related business
Manufacturer
Unknown
Mission
Spacecraft
Bus & Motor
Unknown
Mass
Unknown
Launch date (UTC)
1991-08-15 (34 years ago)
Launch vehicle
Unknown
Launch site
Plesetsk Missile And Space Complex (PKMTR)
Object type
Payload
Rocket body
Debris
Shape & HBR
Unknown shape, 1.1 m
Radar Cross Section
Small (<0.1 m²)

Expand to show TLE details & history
Last TLE update: 4 days ago

TLE from 4 days ago
0 SL-14 DEB
1 45469U 91056CU  25285.35066716  .00001456  00000-0  24782-2 0  9996
2 45469  82.5466 254.3468 0104844 119.7764 241.3851 13.42282430272182
Epoch: 2025-10-12T08:24Z
TLE epoch observation values (Epoch: 2025-10-12T08:24:57.642Z)
Latitude
Longitude
106.93757°
Altitude
1,141.822 km
Speed
7.263 km/s
True Right ascension
16h 57m 23s
True Declination
0° 00' 00"
Sunlit
Object was in daylight at epoch
Visualization orbit readout
Latitude
Unknown
Longitude
Unknown
Altitude
Unknown
Speed
Unknown
Apparent Right ascension
Unknown
Apparent Declination
Unknown
Sunlit
N/A
Visualization observer readout
Local Sidereal Time
10:03:10
Azimuth
Unknown
Elevation
Unknown
Doppler factor
Unknown
Orbital elements
Apogee altitude
1,176.381 km
Perigee altitude
1,019.615 km
Semi-major axis
7,476.135 km
Eccentricity
0.01048
Inclination
82.5466°
RAAN
254.3468°
Arg. of periapsis
119.7764°
True anomaly
240.33706°
Mean anomaly
241.3851°
Eccentric anomaly
240.86042°
Mean motion
3.35759 °/min
Orbital period
107.22 mins
BSTAR
0.0024782
Loading maneuver chart data...
Computing Atmospheric mass density...
Loading historical data...
Loading historical data...
Loading historical data...
Loading historical data...
Loading historical data...
Loading historical data...
Loading historical data...

Documentation

Showing up to 5 results
|